This demonstration page uses our WeatherBlox Daily Observations layout. Learn more.

Left ArrowRight Arrow

39.08367, -84.50855

Hourly Observations for March 11, 2016

Temp ( °F °C ) Dew Point ( °F °C ) Humidity (%) Winds ( mph kmh ) Pressure ( in mb ) Visibility ( mi km ) Precip ( " mm )
12:53 am 00:53 Cloudy 53 11.7 50 10 89 89 NNW 9 15 30.16 1021 10 16.0934 N/A
1:53 am 01:53 Cloudy 52 11.1 49 9.4 89 89 NNE 6 9 30.15 1021 10 16.0934 N/A
2:12 am 02:12 Cloudy 52 11 48 9 88 88 N 6 9 30.18 1022 9 14.48406 N/A
2:53 am 02:53 Cloudy with Mist and Fog 51 10.6 48 8.9 89 89 NNE 7 11 30.16 1022 6 9.65604 N/A
3:06 am 03:06 Cloudy with Mist and Fog 50 10 48 9 94 94 NNE 5 7 30.18 1022 6 9.65604 N/A
3:15 am 03:15 Cloudy with Mist and Fog 50 10 48 8.9 93 93 NNE 5 7 30.15 1021 6 9.65604 N/A
3:53 am 03:53 Partly Cloudy 50 10 48 8.9 93 93 N 7 11 30.17 1022 7 11.26538 N/A
4:04 am 04:04 Mostly Cloudy 50 10 46 8 88 88 N 7 11 30.18 1022 7 11.26538 N/A
4:41 am 04:41 Cloudy 49 9.4 47 8.3 93 93 NNE 8 13 30.21 1023 8 12.87472 N/A
4:53 am 04:53 Cloudy 49 9.4 47 8.3 93 93 N 9 15 30.19 1022 8 12.87472 N/A
5:15 am 05:15 Partly Cloudy 49 9.4 46 7.8 90 90 N 6 9 30.21 1023 8 12.87472 N/A
5:29 am 05:29 Mostly Cloudy 49 9.4 46 7.8 90 90 N 7 11 30.21 1023 8 12.87472 N/A
5:53 am 05:53 Cloudy 49 9.4 46 7.8 90 90 N 8 13 30.23 1024 8 12.87472 N/A
6:53 am 06:53 Cloudy with Mist and Fog 49 9.4 46 7.8 90 90 N 7 11 30.27 1025 5 8.0467 N/A
7:53 am 07:53 Cloudy with Mist and Fog 49 9.4 47 8.3 93 93 N 7 11 30.29 1026 5 8.0467 N/A
8:53 am 08:53 Mostly Cloudy 50 10 46 7.8 86 86 ENE 12 19 30.31 1026 7 11.26538 N/A
9:16 am 09:16 Partly Cloudy 52 11.1 46 7.8 80 80 NNE 9 15 30.33 1027 9 14.48406 N/A
9:32 am 09:32 Mostly Cloudy 52 11 45 7 77 77 NE 15 24 30.3 1026 10 16.0934 N/A
9:53 am 09:53 Mostly Cloudy 52 11.1 46 7.8 80 80 NE 12 19 30.32 1027 10 16.0934 N/A
10:53 am 10:53 Mostly Cloudy 52 11.1 45 7.2 77 77 ENE 12 19 30.32 1027 10 16.0934 N/A
11:42 am 11:42 Partly Cloudy 54 12 45 7 72 72 NNE 12 19 30.33 1027 10 16.0934 N/A
11:53 am 11:53 Mostly Cloudy 53 11.7 45 7.2 74 74 ENE 8 13 30.33 1027 10 16.0934 N/A
12:53 pm 12:53 Mostly Sunny 54 12.2 44 6.7 69 69 NE 10 17 30.34 1027 10 16.0934 N/A
1:53 pm 13:53 Sunny 56 13.3 45 7.2 67 67 NNE 5 7 30.33 1027 10 16.0934 N/A
2:53 pm 14:53 Sunny 56 13.3 44 6.7 65 65 NE 8 13 30.31 1026 10 16.0934 N/A
3:53 pm 15:53 Sunny 57 13.9 45 7.2 64 64 NNE 7 11 30.31 1026 10 16.0934 N/A
4:53 pm 16:53 Sunny 57 13.9 45 7.2 64 64 NE 6 9 30.29 1026 10 16.0934 N/A
5:53 pm 17:53 Sunny 56 13.3 45 7.2 67 67 ENE 7 11 30.29 1026 10 16.0934 N/A
6:53 pm 18:53 Clear 52 11.1 44 6.7 75 75 NE 5 7 30.29 1026 10 16.0934 N/A
7:53 pm 19:53 Clear 49 9.4 44 6.7 83 83 ENE 3 6 30.29 1026 10 16.0934 N/A
8:53 pm 20:53 Clear 46 7.8 44 6.7 93 93 N N/A 30.29 1026 10 16.0934 N/A
9:53 pm 21:53 Clear 45 7.2 45 7.2 100 100 N N/A 30.29 1026 10 16.0934 N/A
10:53 pm 22:53 Clear 46 7.8 45 7.2 96 96 N N/A 30.29 1026 10 16.0934 N/A
11:53 pm 23:53 Clear 44 6.7 44 6.7 100 100 N N/A 30.28 1025 10 16.0934 N/A

Powered by AerisWeather